Flag for Germany

Past Weather in Neuss, North Rhine-Westphalia, Germany — Yesterday and Last 2 Weeks

Now
61 °F

Partly sunny.


Feels Like: 61 °F
Forecast: 62 / 54 °F
Wind: 8 mph from South

Location: Duesseldorf
Current Time: Oct 22, 2020 at 9:16:57 am
Latest Report: Oct 22, 2020 at 8:20 am
Visibility: N/A
Pressure29.83 "Hg
Humidity: 77%
Dew Point: 54 °F
Location of NeussLocation

Past Weather in Neuss — Graph

°F

Neuss Temperature Yesterday

Maximum temperature yesterday: 70 °F (at 3:50 pm)
Minimum temperature yesterday: 54 °F (at 2:20 am)
Average temperature yesterday: 60 °F

High & Low Weather Summary for the Past Weeks

 TemperatureHumidityPressure
High70 °F (Oct 21, 3:50 pm)100% (Oct 7, 8:50 am)30.21 "Hg (Oct 7, 8:50 am)
Low41 °F (Oct 14, 12:20 am)53% (Oct 21, 3:50 pm)29.56 "Hg (Oct 21, 2:50 pm)
Average51 °F82%30.02 "Hg
* Reported Oct 7 7:20 am — Oct 22 7:50 am, Neuss. Weather by CustomWeather, © 2020

Note: Actual official high and low records may vary slightly from our data, if they occured in-between our weather recording intervals... More about our weather records

Neuss Weather History for the Previous 24 Hours

Scroll right to see more
 ConditionsComfort  
Time TempWeatherWind HumidityBarometerVisibility
7:50 am
Thu, Oct 22
61 °FPassing clouds.10 mph77%29.83 "HgN/A
7:20 am59 °FPassing clouds.10 mph82%29.83 "HgN/A
6:50 am59 °FPassing clouds.9 mph82%29.83 "HgN/A
6:20 am59 °FClear.10 mph82%29.83 "Hg10 mi
5:50 am59 °FClear.8 mph82%29.83 "Hg10 mi
5:20 am59 °FClear.7 mph82%29.83 "Hg10 mi
4:50 am57 °FClear.8 mph82%29.83 "Hg10 mi
4:20 am59 °FClear.10 mph82%29.83 "Hg10 mi
3:50 am61 °FClear.10 mph77%29.83 "Hg10 mi
3:20 am61 °FClear.12 mph77%29.83 "Hg10 mi
2:50 am63 °FClear.15 mph73%29.80 "Hg10 mi
2:20 am64 °FPassing clouds.14 mph68%29.80 "HgN/A
1:50 am63 °FPassing clouds.12 mph73%29.80 "HgN/A
1:20 am64 °FPassing clouds.15 mph68%29.80 "HgN/A
12:50 am64 °FPassing clouds.17 mph68%29.77 "HgN/A
12:20 am66 °FClear.20 mph64%29.77 "Hg10 mi
11:50 pm
Wed, Oct 21
66 °FClear.18 mph64%29.74 "Hg10 mi
11:20 pm66 °FPassing clouds.15 mph64%29.74 "HgN/A
10:50 pm64 °FPassing clouds.20 mph68%29.71 "HgN/A
10:20 pm66 °FPassing clouds.20 mph64%29.71 "HgN/A
9:50 pm66 °FPassing clouds.17 mph64%29.71 "HgN/A
9:20 pm66 °FPassing clouds.17 mph64%29.68 "HgN/A
8:50 pm66 °FClear.18 mph64%29.65 "Hg10 mi
8:20 pm66 °FClear.21 mph60%29.65 "Hg10 mi
7:50 pm68 °FClear.23 mph56%29.65 "Hg10 mi
7:20 pm68 °FClear.17 mph56%29.62 "Hg10 mi
6:50 pm66 °FClear.18 mph60%29.62 "Hg10 mi
6:20 pm68 °FSunny.21 mph56%29.59 "Hg10 mi
5:50 pm70 °FSunny.22 mph53%29.59 "Hg10 mi
5:20 pm70 °FPassing clouds.21 mph53%29.56 "HgN/A
4:50 pm70 °FPassing clouds.24 mph53%29.56 "HgN/A
4:20 pm70 °FSunny.18 mph53%29.56 "Hg10 mi
3:50 pm70 °FPassing clouds.18 mph53%29.56 "HgN/A
3:20 pm68 °FPassing clouds.15 mph56%29.56 "HgN/A
2:50 pm66 °FPassing clouds.18 mph60%29.56 "HgN/A
1:50 pm59 °FSunny.15 mph68%29.59 "Hg10 mi
1:20 pm59 °FSunny.17 mph68%29.59 "Hg10 mi
12:50 pm57 °FSunny.15 mph72%29.62 "Hg10 mi
12:20 pm57 °FSunny.17 mph72%29.62 "Hg10 mi
11:50 am55 °FSunny.16 mph82%29.62 "Hg10 mi
11:20 am55 °FLight rain. Passing clouds.17 mph82%29.65 "HgN/A
10:50 am55 °FLight rain. Passing clouds.15 mph88%29.65 "HgN/A
10:20 am54 °FLight rain. Passing clouds.16 mph94%29.65 "HgN/A
9:50 am54 °FLight rain. Partly sunny.15 mph94%29.68 "HgN/A
9:20 am54 °FLight rain. Scattered clouds.14 mph94%29.65 "HgN/A
Weather by CustomWeather, © 2020

See weather overview